Melbourne International Airport
KMLB : now visible

Airfield :











YOU CAN JOIN US ON...

 
LOGIN :

Register | Disclaimer

   EN    FR    IT 

 









Legend :    VFR   Marginal VFR   IFR   Intensive IFR   Very Intensive IFR
Visi :
Ceiling :
>= 8 km
>= 3000ft
5 to 8 km
1000 to 3000 ft
1500m to 5 km
500 to 1000 ft
800 to 1500m
200 to 500 ft
< 800m
< 200 ft
Symbols :   Thunderstorms  Fog  Heavy snow  Heavy precipitations  Wind > 20 kt






- Airport Elevation : 33 ft
- IATA code : MLB


KMLB - Melbourne International

CURRENT METAR :
  • 270153Z 17006KT 10SM CLR 27/23 A2997 RMK AO2 SLP149 T02720228

EXPIRED METARs :
  • 270053Z 18006KT 10SM CLR 27/24 A2996 RMK AO2 SLP145 T02720239
  • 262353Z 18006KT 10SM FEW044 28/23 A2995 RMK AO2 SLP140 60000 T02830233 10328 20256 55002

TAF KMLB
Valid from the 27 at 00:00 until the 28 at 00:00 UTC


262336Z 2700/2724 18005KT P6SM FEW045 SCT090 BKN250
FM271400 20006KT P6SM SCT030 SCT250
FM271800 13010KT P6SM SCT035 SCT050 SCT250
FM272100 14010KT P6SM VCTS SCT035CB BKN060 BKN250
KZMA FIR / North America



MET'MAP, your aeronautical weather chart ! - Copyright ORBIFLY December 2007 - Disclaimer

ORBIFLY MET'MAP TEAM :

Programming & Development : Alexandra Zaïnal
Concept & original design : Baudouin d'Aumeries
Assistance for programming : Marc-Olivier Méhu
Technical & hardware support : Manuel Goepfert

Contact : metmap@orbifly.com




SOURCES & CREDITS :

   NOAA       Earth
Advisory